Warm Springs Summit, Nevada Weather observations

Data are for observation ending at time listed.
 Day   Time    Ave.   Ave.  Ave.  Vector   Max.   Stn.    Total    Solar   Ave.  
  of    of     Air    Rel.  Wind   Wind    Wind   Baro.  Precip.   Rad.    Soil  
Year   Day     Temp.  Hum.  Speed  Dir.    Gust   Pres.                    Temp. 
2015   (PST)    F      %     mph   deg.    mph     mb.     in.     W/m2     F   
------------------------------------------------------------------------------
  89   17:50   60.3    12   15.6   244     23.4   773.8    0.00      18    65.1
  89   18:00   59.5    12   16.4   254     21.2   773.8    0.00       6    65.1
  89   18:10   59.1    12   15.9   251     19.2   773.8    0.00       2    65.0
  89   18:20   58.6    12   16.7   247     20.9   773.8    0.00       0    64.9
  89   18:30   58.4    12   18.2   246     22.9   773.8    0.00       0    64.8
  89   18:40   58.1    12   16.9   241     21.9   773.8    0.00       0    64.8
  89   18:50   58.0    12   17.3   240     21.8   773.9    0.00       0    64.7
  89   19:00   57.8    12   17.1   240     22.5   774.0    0.00       0    64.5
  89   19:10   57.8    12   16.7   240     21.2   774.0    0.00       0    64.4
  89   19:20   57.8    12   16.8   239     22.2   774.1    0.00       0    64.3
  89   19:30   57.7    12   17.0   237     22.0   774.0    0.00       0    64.2
  89   19:40   57.7    12   17.0   236     22.0   774.1    0.00       0    64.0
  89   19:50   57.6    12   16.9   235     21.0   774.2    0.00       0    63.9
  89   20:00   57.2    13   16.0   235     20.7   774.2    0.00       0    63.7
  89   20:10   57.0    13   18.2   234     22.4   774.1    0.00       0    63.6
  89   20:20   56.8    13   19.5   234     23.1   774.0    0.00       0    63.4
  89   20:30   56.5    14   19.2   238     24.8   774.0    0.00       0    63.3
  89   20:40   56.3    14   19.6   234     23.9   774.0    0.00       0    63.1
  89   20:50   56.2    14   19.2   232     24.0   774.0    0.00       0    63.0
  89   21:00   56.1    14   17.4   227     21.5   774.0    0.00       0    62.9
  89   21:10   56.0    14   18.0   226     22.9   774.0    0.00       0    62.7
  89   21:20   55.9    14   18.0   225     23.1   773.9    0.00       0    62.6
  89   21:30   56.2    14   18.4   224     22.8   773.9    0.00       0    62.4
  89   21:40   56.2    14   19.3   226     23.7   773.9    0.00       0    62.3
  89   21:50   55.9    14   16.9   222     21.1   773.9    0.00       0    62.1
  89   22:00   55.4    14   16.6   229     21.5   773.8    0.00       0    62.0
  89   22:10   55.2    14   17.2   226     20.7   773.8    0.00       0    61.8
  89   22:20   55.2    14   16.6   222     22.0   773.8    0.00       0    61.7
  89   22:30   55.3    14   17.4   214     23.2   773.7    0.00       0    61.6
  89   22:40   55.2    14   14.7   219     19.5   773.7    0.00       0    61.4
  89   22:50   54.8    14   15.0   232     20.8   773.6    0.00       0    61.3
  89   23:00   54.6    14   14.8   233     19.9   773.6    0.00       0    61.2
  89   23:10   54.4    14   15.5   229     19.5   773.5    0.00       0    61.0
  89   23:20   54.3    14   16.4   228     19.0   773.5    0.00       0    60.9
  89   23:30   54.0    14   17.2   231     22.0   773.5    0.00       0    60.8
  89   23:40   54.2    15   19.6   227     23.6   773.4    0.00       0    60.6
  89   23:50   54.1    15   20.1   228     23.8   773.4    0.00       0    60.5
  90    0:00   54.0    15   19.8   231     24.1   773.4    0.00       0    60.4
  90    0:10   54.1    15   20.5   230     26.0   773.3    0.00       0    60.3
  90    0:20   54.3    15   20.4   226     26.7   773.3    0.00       0    60.2
  90    0:30   54.0    15   20.1   229     23.4   773.2    0.00       0    60.0
  90    0:40   53.8    15   19.0   232     22.9   773.2    0.00       0    59.9
  90    0:50   53.8    15   19.0   231     24.0   773.1    0.00       0    59.8
  90    1:00   53.7    15   19.2   231     23.6   773.1    0.00       0    59.7
  90    1:10   53.9    16   19.9   229     24.8   773.0    0.00       0    59.6
  90    1:20   53.9    16   19.7   229     27.3   772.9    0.00       0    59.5
  90    1:30   54.0    17   19.1   221     25.9   772.8    0.00       0    59.4
  90    1:40   53.8    17   18.7   225     22.9   772.7    0.00       0    59.3
  90    1:50   53.9    18   18.0   219     24.2   772.6    0.00       0    59.2
  90    2:00   54.0    18   19.6   218     27.0   772.5    0.00       0    59.1
  90    2:10   54.1    18   19.6   219     27.4   772.4    0.00       0    59.0
  90    2:20   54.1    18   18.3   218     26.4   772.4    0.00       0    58.9
  90    2:30   53.9    18   19.0   217     26.9   772.3    0.00       0    58.8
  90    2:40   53.7    18   20.0   214     25.8   772.2    0.00       0    58.7
  90    2:50   53.6    18   20.0   216     27.7   772.0    0.00       0    58.6
  90    3:00   53.6    18   19.9   215     25.0   772.0    0.00       0    58.5
  90    3:10   53.5    18   20.0   215     26.6   771.9    0.00       0    58.4
  90    3:20   53.6    18   19.2   218     24.9   771.8    0.00       0    58.3
  90    3:30   53.3    18   17.8   214     24.8   771.8    0.00       0    58.2
  90    3:40   53.0    18   17.5   220     22.4   771.8    0.00       0    58.2
  90    3:50   52.4    18   16.0   229     25.7   771.8    0.00       0    58.1
  90    4:00   52.0    19   15.6   223     19.6   771.7    0.00       0    58.0
  90    4:10   52.3    18   15.7   220     26.0   771.7    0.00       0    57.9
  90    4:20   52.8    18   17.6   213     24.9   771.6    0.00       0    57.8
  90    4:30   53.0    18   19.5   216     24.7   771.6    0.00       0    57.8
  90    4:40   52.8    18   19.1   214     24.2   771.5    0.00       0    57.7
  90    4:50   52.4    18   17.9   212     21.7   771.6    0.00       0    57.6
  90    5:00   52.1    18   18.1   211     20.3   771.6    0.00       0    57.5
  90    5:10   52.0    18   18.8   211     23.4   771.5    0.00       0    57.5
  90    5:20   51.9    18   17.1   215     20.6   771.6    0.00       1    57.4
  90    5:30   51.9    18   17.1   211     20.3   771.6    0.00       4    57.3
  90    5:40   51.7    18   16.5   211     18.3   771.6    0.00       9    57.2
  90    5:50   51.8    18   15.3   211     18.9   771.7    0.00      27    57.1
  90    6:00   52.0    18   16.0   212     19.9   771.7    0.00      50    57.1
  90    6:10   52.4    18   16.2   215     20.1   771.7    0.00      88    57.0
  90    6:20   52.5    18   15.1   213     18.9   771.7    0.00      91    56.9
  90    6:30   52.6    18   16.1   213     22.0   771.7    0.00     108    56.9
  90    6:40   52.8    18   16.9   214     22.8   771.7    0.00     148    56.8
  90    6:50   52.8    18   17.6   214     21.8   771.7    0.00     149    56.7
  90    7:00   52.8    18   16.9   213     19.9   771.7    0.00     158    56.6
  90    7:10   52.8    18   15.8   214     19.7   771.7    0.00     194    56.6
  90    7:20   52.7    18   12.6   215     16.6   771.7    0.00     193    56.5
  90    7:30   52.5    18   11.7   223     15.6   771.8    0.00     230    56.5
  90    7:40   52.5    18   11.5   226     14.8   771.8    0.00     257    56.4
  90    7:50   52.8    18   10.2   222     15.0   771.8    0.00     303    56.4
  90    8:00   53.0    18    8.6   236     11.4   771.8    0.00     390    56.4
  90    8:10   53.5    18   10.1   259     13.1   771.9    0.00     506    56.3
  90    8:20   53.9    19   10.6   260     14.2   771.9    0.00     473    56.3
  90    8:30   53.8    19   12.8   263     17.8   771.9    0.00     547    56.3
  90    8:40   54.0    19   14.5   252     18.9   771.9    0.00     588    56.3
  90    8:50   53.9    19   15.8   249     22.3   771.8    0.00     657    56.3
  90    9:00   54.8    18   16.1   244     21.2   771.8    0.00     738    56.4
  90    9:10   55.0    19   18.5   252     24.2   771.8    0.00     754    56.4
  90    9:20   55.5    18   18.8   246     26.0   771.8    0.00     772    56.4
  90    9:30   56.2    18   18.1   240     26.9   771.7    0.00     843    56.5
  90    9:40   57.2    17   15.9   236     25.5   771.8    0.00     846    56.6
  90    9:50   56.7    17   19.4   230     32.4   771.7    0.00     839    56.7
  90   10:00   57.1    16   19.9   232     30.8   771.6    0.00     722    56.8
  90   10:10   57.5    15   18.8   230     30.0   771.6    0.00     824    57.0
  90   10:20   58.1    15   18.2   228     36.5   771.5    0.00     798    57.1
  90   10:30   58.3    15   20.8   238     32.9   771.4    0.00     834    57.3
  90   10:40   58.3    15   20.5   233     33.1   771.3    0.00     862    57.5
  90   10:50   58.7    15   19.5   235     38.3   771.2    0.00     932    57.7
  90   11:00   59.0    15   21.8   225     32.9   771.0    0.00     938    57.8
  90   11:10   60.0    14   19.8   219     33.2   770.9    0.00     903    58.0
  90   11:20   59.9    14   22.0   213     35.1   770.8    0.00     865    58.2
  90   11:30   61.1    13   18.2   229     30.0   770.8    0.00     939    58.4
  90   11:40   61.2    13   22.7   216     32.9   770.5    0.00     930    58.6
  90   11:50   61.5    13   23.4   213     34.8   770.4    0.00     891    58.8
  90   12:00   60.8    12   23.6   220     35.0   770.2    0.00     899    59.0
  90   12:10   61.7    12   21.3   215     33.4   770.2    0.00     898    59.3
  90   12:20   62.2    12   19.9   227     34.6   770.2    0.00     909    59.5
  90   12:30   62.0    12   22.2   235     35.3   769.9    0.00     938    59.7
  90   12:40   62.5    12   21.5   240     33.7   769.9    0.00     925    59.9
  90   12:50   62.4    12   20.1   231     35.5   769.8    0.00     913    60.1
  90   13:00   62.1    12   24.0   247     39.8   769.6    0.00     898    60.3
  90   13:10   63.2    12   20.4   244     32.7   769.5    0.00     885    60.5
  90   13:20   63.1    12   25.2   255     37.0   769.3    0.00     871    60.8
  90   13:30   62.7    12   27.2   256     38.7   769.1    0.00     855    61.0
  90   13:40   62.7    12   25.3   249     35.1   769.1    0.00     836    61.2
  90   13:50   62.7    12   19.5   242     31.3   769.2    0.00     817    61.4
  90   14:00   63.7    12   23.8   253     37.0   769.0    0.00     809    61.6
  90   14:10   62.6    12   25.1   257     36.7   768.8    0.00     777    61.8
  90   14:20   63.0    12   22.3   255     35.3   768.8    0.00     701    62.0
  90   14:30   62.4    12   16.9   254     25.7   768.8    0.00     373    62.2
  90   14:40   64.0    12   18.1   259     36.2   768.6    0.00     746    62.3
  90   14:50   63.6    12   27.8   258     39.1   768.3    0.00     735    62.5
  90   15:00   64.1    11   22.0   257     33.4   768.5    0.00     756    62.7
  90   15:10   64.6    11   23.8   279     31.6   768.4    0.00     669    62.8
  90   15:20   64.3    11   27.7   268     38.4   768.1    0.00     621    62.9
  90   15:30   62.4    11   28.6   263     38.7   768.0    0.00     355    63.1
  90   15:40   61.6    12   28.9   274     37.4   768.0    0.00     294    63.2
  90   15:50   61.7    12   22.3   278     32.0   768.2    0.00     413    63.3
  90   16:00   63.2    11   25.2   285     32.7   768.0    0.00     516    63.4
  90   16:10   62.2    11   24.5   284     31.9   767.9    0.00     305    63.5
  90   16:20   62.2    10   27.1   272     38.7   767.8    0.00     319    63.5
  90   16:30   61.0    10   33.8   274     43.1   767.5    0.00     242    63.6
  90   16:40   61.4    10   30.5   277     44.9   767.6    0.00     341    63.6
  90   16:50   61.2    10   31.7   278     42.7   767.5    0.00     284    63.6
  90   17:00   60.9    10   30.0   285     40.8   767.5    0.00     229    63.6
  90   17:10   60.5    10   28.7   286     41.9   767.5    0.00     182    63.6
  90   17:20   59.6    10   32.7   283     39.6   767.3    0.00     124    63.6
  90   17:30   59.0     9   28.7   280     37.0   767.5    0.00      90    63.6
  90   17:40   58.5     8   27.5   283     38.2   767.4    0.00      63    63.6

Return to Warm Springs Summit, Nevada graphs page.


Western Regional Climate Center,wrcc@dri.edu